CALSPHERE 1 1 00900U 64063C 26151.52156992 .00000723 00000+0 72670-3 0 9998 2 00900 90.2238 71.3779 0026180 349.1816 74.3562 13.76603603 69139 CALSPHERE 2 1 00902U 64063E 26151.25457490 .00000070 00000+0 92139-4 0 9995 2 00902 90.2378 75.3875 0016572 277.9063 202.6122 13.52899030853979 LCS 1 1 01361U 65034C 26151.51044214 .00000033 00000+0 32606-2 0 9999 2 01361 32.1378 216.6271 0012475 62.2438 297.9323 9.89310577208235 TEMPSAT 1 1 01512U 65065E 26151.17289184 .00000049 00000+0 80831-4 0 9992 2 01512 90.0000 212.5916 0067789 297.1658 87.5161 13.33593075957784 CALSPHERE 4A 1 01520U 65065H 26151.46488118 .00000112 00000+0 19702-3 0 9990 2 01520 89.8973 122.6530 0070744 149.1107 335.3629 13.36274932960475 OPS 5712 (P/L 160) 1 02826U 67053A 26151.32763154 .00012421 00000+0 17481-2 0 9997 2 02826 69.9175 79.6119 0001156 259.7260 100.3758 14.77465942 63747 OPS 5712 (P/L 153) 1 02874U 67053H 26151.36675273 .00000040 00000+0 67012-4 0 9999 2 02874 69.9717 151.3597 0009355 231.1894 128.8377 13.96825818 4442 RIGIDSPHERE 2 (LCS 4) 1 05398U 71067E 26151.55920214 .00000690 00000+0 21887-3 0 9992 2 05398 87.6211 343.4300 0057671 288.8323 70.6627 14.37847469871499 COSMOS 2493 (SKRL-756 1) 1 39490U 13078A 26151.49816590 .00004604 00000+0 34839-3 0 9994 2 39490 82.4128 277.5117 0011812 303.5703 56.4393 15.02063967675452 COSMOS 2494 (SKRL-756 2) 1 39491U 13078B 26151.45955420 .00005227 00000+0 36820-3 0 9991 2 39491 82.4120 267.0076 0014735 261.0955 98.8603 15.04752055676299